Weather Roundup
Issued by NWS Corpus Christi, TX

Home | Current Version | Previous Version | Text Only | Print | Product List | Glossary On
Versions: 1 2 3 4 5 6 7 8 9 10 11 12 13 14 15 16 17 18 19 20 21 22 23 24 25 26 27 28 29 30 31 32 33 34 35 36 37 38 39 40 41 42 43 44 45 46 47 48 49 50
000
ASUS44 KCRP 282310
HRRCRP

SOUTH TEXAS REGIONAL WEATHER ROUNDUP
NATIONAL WEATHER SERVICE CORPUS CHRISTI TX
600 PM CDT SUN AUG 28 2016


TXZ229>244-290000-
...CORPUS CHRISTI AREA OBSERVATIONS...

CITY           SKY/WX    TMP DP  RH WIND       PRES   REMARKS
CORPUS CHRISTI MOSUNNY   95  71  45 E10       29.85F HX 102
NAS CORPUS CHR MOSUNNY   89  77  67 E16       29.86F HX 101
ROCKPORT       SUNNY     89  72  56 E14       29.86F HX  96
KINGSVILLE NAS MOSUNNY   94  71  47 NE7       29.85S HX 101
ALICE          MOSUNNY   93  69  45 N8        29.86S HX  98
FALFURRIAS     MOSUNNY   94  68  41 NE12G17   29.85S HX  98
$$

...VICTORIA AREA OBSERVATIONS...

CITY           SKY/WX    TMP DP  RH WIND       PRES   REMARKS
VICTORIA       PTSUNNY   85  72  65 E10       29.89S HX  91
BEEVILLE       FAIR      90  73  58 N6        29.88F HX  98
PLEASANTON     SUNNY     90  68  48 NE9       29.90F HX  94
SAN ANTONIO    MOSUNNY   88  69  53 E12       29.92F HX  92
$$

...LAREDO AREA OBSERVATIONS...

CITY           SKY/WX    TMP DP  RH WIND       PRES   REMARKS
LAREDO         PTSUNNY   94  67  41 E7        29.87S HX  97
COTULLA        SUNNY     94  66  39 E13       29.88F HX  97
DEL RIO        SUNNY     90  68  48 SE8       29.89F HX  94
MCALLEN        MOSUNNY   99  65  32 E10       29.83F HX 102
HEBBRONVILLE   SUNNY     93  67  41 E9        29.89S HX  96
$$

...OTHER TEXAS OBSERVATIONS...

CITY           SKY/WX    TMP DP  RH WIND       PRES   REMARKS
BROWNSVILLE    SUNNY     91  72  53 E16G22    29.87R HX  98
HOUSTON        CLOUDY    78  72  81 NE9       29.93R
COL. STATION   CLOUDY    79  75  87 NE5       29.95S
AUSTIN         MOSUNNY   89  71  55 NE12      29.92S HX  95
WACO           MOSUNNY   88  71  57 E12       29.95F HX  94
FORT WORTH     MOSUNNY   90  64  42 E12       29.96F HX  91
WICHITA FALLS  SUNNY     91  65  41 S13G25    29.96F HX  93
LUBBOCK        PTSUNNY   77  59  53 NW18      30.08R THUNDER
EL PASO        MOSUNNY   89  54  30 N3        30.02F
$$

...MARINE OBSERVATIONS...

STATION/POSITION TIME  SKY/WX   TEMP    WIND        PRES    VSBY  WAVE   SWELL
                                AIR SEA DIR/SP/G                  HT/PER HT/PER
                 (UTC)          (F)     (DEG/KT/KT) (MB)    (MI)  (FT/S) (FT/S)
PORT ARANSAS     2300            83 89   50/ 16/ 18 1011.4F
BUOY 90 E PORT A 2250            83 86   70/  8/ 10 1011.1F         2/ 5   2/ 5
BUOY 45 SE BAFFI 2250            84 87   50/  8/ 10 1011.0F         2/ 6   2/ 6
BUOY 200 E PT IS 2250            86 88   40/  6/  6 1010.0F         2/ 6   2/ 6
BUOY 15 E GALVES 2250            83 85   70/ 14/ 16 1012.2R         2/ 4
$$




USA.gov is the U.S. government's official web portal to all federal, state and local government web resources and services.